Location: Stara Lesna
(49.1528°N, 20.2911°E)
Time: 10:13:20
(UTC+02:00)

Meteor 2-4 Rocket - Pass Details

Date: 13 July 2020
Orbit: 800 x 908 km, 81.2° (Epoch: 05 August)

Event Time Altitude Azimuth Distance (km) Brightness Sun altitude
Rises 02:24:24 0° 347° (NNW) 3,549 7.8 -15.7°
Reaches altitude 10° 02:26:53 10° 348° (NNW) 2,604 7.0 -15.5°
Maximum altitude 02:32:52 88° 261° (W) 913 3.8 -15.1°
Enters shadow 02:37:56 14° 171° (S) 2,260 5.4 -14.7°
